Year,Month,Day,Hour,Minute,Value (Times are PST for temperature in C)
2017,05,13,00,00,7.20
2017,05,13,00,01,7.20
2017,05,13,00,02,7.20
2017,05,13,00,03,7.20
2017,05,13,00,04,7.20
2017,05,13,00,05,7.20
2017,05,13,00,06,7.20
2017,05,13,00,07,7.20
2017,05,13,00,08,7.20
2017,05,13,00,09,7.20
2017,05,13,00,10,7.20
2017,05,13,00,11,7.20
2017,05,13,00,12,7.20
2017,05,13,00,13,7.20
2017,05,13,00,14,7.20
2017,05,13,00,15,7.20
2017,05,13,00,16,7.20
2017,05,13,00,17,7.20
2017,05,13,00,18,7.20
2017,05,13,00,19,7.20
2017,05,13,00,20,7.20
2017,05,13,00,21,7.20
2017,05,13,00,22,7.20
2017,05,13,00,23,7.10
2017,05,13,00,24,7.10
2017,05,13,00,25,7.10
2017,05,13,00,26,7.10
2017,05,13,00,27,7.10
2017,05,13,00,28,7.10
2017,05,13,00,29,7.10
2017,05,13,00,30,7.10
2017,05,13,00,31,7.00
2017,05,13,00,32,7.00
2017,05,13,00,33,7.00
2017,05,13,00,34,7.00
2017,05,13,00,35,7.00
2017,05,13,00,36,7.00
2017,05,13,00,37,7.00
2017,05,13,00,38,6.90
2017,05,13,00,39,6.90
2017,05,13,00,40,6.90
2017,05,13,00,41,6.90
2017,05,13,00,42,6.90
2017,05,13,00,43,6.90
2017,05,13,00,44,6.90
2017,05,13,00,45,6.90
2017,05,13,00,46,6.80
2017,05,13,00,47,6.80
2017,05,13,00,48,6.80
2017,05,13,00,49,6.80
2017,05,13,00,50,6.80
2017,05,13,00,51,6.70
2017,05,13,00,52,6.70
2017,05,13,00,53,6.70
2017,05,13,00,54,6.70
2017,05,13,00,55,6.70
2017,05,13,00,56,6.70
2017,05,13,00,57,6.70
2017,05,13,00,58,6.70
2017,05,13,00,59,6.70
2017,05,13,01,00,6.80
2017,05,13,01,01,6.70
2017,05,13,01,02,6.70
2017,05,13,01,03,6.70
2017,05,13,01,04,6.70
2017,05,13,01,05,6.70
2017,05,13,01,06,6.70
2017,05,13,01,07,6.70
2017,05,13,01,08,6.70
2017,05,13,01,09,6.70
2017,05,13,01,10,6.70
2017,05,13,01,11,6.60
2017,05,13,01,12,6.60
2017,05,13,01,13,6.60
2017,05,13,01,14,6.60
2017,05,13,01,15,6.60
2017,05,13,01,16,6.60
2017,05,13,01,17,6.60
2017,05,13,01,18,6.60
2017,05,13,01,19,6.60
2017,05,13,01,20,6.60
2017,05,13,01,21,6.60
2017,05,13,01,22,6.60
2017,05,13,01,23,6.60
2017,05,13,01,24,6.60
2017,05,13,01,25,6.50
2017,05,13,01,26,6.60
2017,05,13,01,27,6.50
2017,05,13,01,28,6.50
2017,05,13,01,29,6.50
2017,05,13,01,30,6.50
2017,05,13,01,31,6.50
2017,05,13,01,32,6.50
2017,05,13,01,33,6.50
2017,05,13,01,34,6.50
2017,05,13,01,35,6.50
2017,05,13,01,36,6.50
2017,05,13,01,37,6.50
2017,05,13,01,38,6.50
2017,05,13,01,39,6.50
2017,05,13,01,40,6.50
2017,05,13,01,41,6.50
2017,05,13,01,42,6.50
2017,05,13,01,43,6.50
2017,05,13,01,44,6.50
2017,05,13,01,45,6.50
2017,05,13,01,46,6.50
2017,05,13,01,47,6.50
2017,05,13,01,48,6.50
2017,05,13,01,49,6.50
2017,05,13,01,50,6.50
2017,05,13,01,51,6.50
2017,05,13,01,52,6.50
2017,05,13,01,53,6.60
2017,05,13,01,54,6.60
2017,05,13,01,55,6.60
2017,05,13,01,56,6.60
2017,05,13,01,57,6.60
2017,05,13,01,58,6.60
2017,05,13,01,59,6.60
2017,05,13,02,00,6.60
2017,05,13,02,01,6.60
2017,05,13,02,02,6.60
2017,05,13,02,03,6.60
2017,05,13,02,04,6.60
2017,05,13,02,05,6.60
2017,05,13,02,06,6.60
2017,05,13,02,07,6.60
2017,05,13,02,08,6.60
2017,05,13,02,09,6.60
2017,05,13,02,10,6.60
2017,05,13,02,11,6.60
2017,05,13,02,12,6.60
2017,05,13,02,13,6.60
2017,05,13,02,14,6.60
2017,05,13,02,15,6.60
2017,05,13,02,16,6.50
2017,05,13,02,17,6.50
2017,05,13,02,18,6.50
2017,05,13,02,19,6.50
2017,05,13,02,20,6.50
2017,05,13,02,21,6.50
2017,05,13,02,22,6.50
2017,05,13,02,23,6.50
2017,05,13,02,24,6.50
2017,05,13,02,25,6.50
2017,05,13,02,26,6.50
2017,05,13,02,27,6.50
2017,05,13,02,28,6.50
2017,05,13,02,29,6.50
2017,05,13,02,30,6.50
2017,05,13,02,31,6.50
2017,05,13,02,32,6.50
2017,05,13,02,33,6.40
2017,05,13,02,34,6.40
2017,05,13,02,35,6.40
2017,05,13,02,36,6.40
2017,05,13,02,37,6.30
2017,05,13,02,38,6.30
2017,05,13,02,39,6.30
2017,05,13,02,40,6.30
2017,05,13,02,41,6.30
2017,05,13,02,42,6.30
2017,05,13,02,43,6.20
2017,05,13,02,44,6.20
2017,05,13,02,45,6.20
2017,05,13,02,46,6.20
2017,05,13,02,47,6.20
2017,05,13,02,48,6.20
2017,05,13,02,49,6.10
2017,05,13,02,50,6.10
2017,05,13,02,51,6.10
2017,05,13,02,52,6.10
2017,05,13,02,53,6.10
2017,05,13,02,54,6.00
2017,05,13,02,55,6.00
2017,05,13,02,56,6.00
2017,05,13,02,57,6.00
2017,05,13,02,58,5.90
2017,05,13,02,59,5.90
2017,05,13,03,00,5.90
2017,05,13,03,01,5.90
2017,05,13,03,02,5.80
2017,05,13,03,03,5.80
2017,05,13,03,04,5.80
2017,05,13,03,05,5.80
2017,05,13,03,06,5.80
2017,05,13,03,07,5.80
2017,05,13,03,08,5.70
2017,05,13,03,09,5.70
2017,05,13,03,10,5.70
2017,05,13,03,11,5.70
2017,05,13,03,12,5.70
2017,05,13,03,13,5.60
2017,05,13,03,14,5.60
2017,05,13,03,15,5.60
2017,05,13,03,16,5.60
2017,05,13,03,17,5.60
2017,05,13,03,18,5.50
2017,05,13,03,19,5.50
2017,05,13,03,20,5.50
2017,05,13,03,21,5.50
2017,05,13,03,22,5.50
2017,05,13,03,23,5.50
2017,05,13,03,24,5.50
2017,05,13,03,25,5.40
2017,05,13,03,26,5.40
2017,05,13,03,27,5.40
2017,05,13,03,28,5.40
2017,05,13,03,29,5.40
2017,05,13,03,30,5.40
2017,05,13,03,31,5.40
2017,05,13,03,32,5.30
2017,05,13,03,33,5.30
2017,05,13,03,34,5.30
2017,05,13,03,35,5.30
2017,05,13,03,36,5.30
2017,05,13,03,37,5.30
2017,05,13,03,38,5.30
2017,05,13,03,39,5.30
2017,05,13,03,40,5.30
2017,05,13,03,41,5.30
2017,05,13,03,42,5.30
2017,05,13,03,43,5.30
2017,05,13,03,44,5.30
2017,05,13,03,45,5.30
2017,05,13,03,46,5.30
2017,05,13,03,47,5.20
2017,05,13,03,48,5.20
2017,05,13,03,49,5.20
2017,05,13,03,50,5.20
2017,05,13,03,51,5.20
2017,05,13,03,52,5.20
2017,05,13,03,53,5.20
2017,05,13,03,54,5.20
2017,05,13,03,55,5.20
2017,05,13,03,56,5.20
2017,05,13,03,57,5.20
2017,05,13,03,58,5.20
2017,05,13,03,59,5.20
2017,05,13,04,00,5.20
2017,05,13,04,01,5.20
2017,05,13,04,02,5.20
2017,05,13,04,03,5.10
2017,05,13,04,04,5.10
2017,05,13,04,05,5.10
2017,05,13,04,06,5.10
2017,05,13,04,07,5.10
2017,05,13,04,08,5.10
2017,05,13,04,09,5.10
2017,05,13,04,10,5.10
2017,05,13,04,11,5.10
2017,05,13,04,12,5.00
2017,05,13,04,13,5.00
2017,05,13,04,14,5.00
2017,05,13,04,15,5.00
2017,05,13,04,16,5.00
2017,05,13,04,17,5.00
2017,05,13,04,18,5.00
2017,05,13,04,19,5.00
2017,05,13,04,20,4.90
2017,05,13,04,21,4.90
2017,05,13,04,22,4.90
2017,05,13,04,23,4.90
2017,05,13,04,24,4.90
2017,05,13,04,25,4.90
2017,05,13,04,26,4.90
2017,05,13,04,27,4.90
2017,05,13,04,28,4.90
2017,05,13,04,29,4.80
2017,05,13,04,30,4.80
2017,05,13,04,31,4.80
2017,05,13,04,32,4.80
2017,05,13,04,33,4.80
2017,05,13,04,34,4.80
2017,05,13,04,35,4.80
2017,05,13,04,36,4.80
2017,05,13,04,37,4.80
2017,05,13,04,38,4.80
2017,05,13,04,39,4.80
2017,05,13,04,40,4.70
2017,05,13,04,41,4.70
2017,05,13,04,42,4.70
2017,05,13,04,43,4.70
2017,05,13,04,44,4.70
2017,05,13,04,45,4.70
2017,05,13,04,46,4.70
2017,05,13,04,47,4.70
2017,05,13,04,48,4.60
2017,05,13,04,49,4.60
2017,05,13,04,50,4.60
2017,05,13,04,51,4.60
2017,05,13,04,52,4.60
2017,05,13,04,53,4.60
2017,05,13,04,54,4.60
2017,05,13,04,55,4.60
2017,05,13,04,56,4.60
2017,05,13,04,57,4.60
2017,05,13,04,58,4.60
2017,05,13,04,59,4.50
2017,05,13,05,00,4.50
2017,05,13,05,01,4.50
2017,05,13,05,02,4.50
2017,05,13,05,03,4.50
2017,05,13,05,04,4.50
2017,05,13,05,05,4.60
2017,05,13,05,06,4.50
2017,05,13,05,07,4.60
2017,05,13,05,08,4.60
2017,05,13,05,09,4.60
2017,05,13,05,10,4.60
2017,05,13,05,11,4.60
2017,05,13,05,12,4.60
2017,05,13,05,13,4.60
2017,05,13,05,14,4.70
2017,05,13,05,15,4.70
2017,05,13,05,16,4.70
2017,05,13,05,17,4.70
2017,05,13,05,18,4.70
2017,05,13,05,19,4.80
2017,05,13,05,20,4.80
2017,05,13,05,21,4.80
2017,05,13,05,22,4.80
2017,05,13,05,23,4.80
2017,05,13,05,24,4.90
2017,05,13,05,25,4.90
2017,05,13,05,26,4.90
2017,05,13,05,27,4.90
2017,05,13,05,28,5.00
2017,05,13,05,29,5.00
2017,05,13,05,30,5.00
2017,05,13,05,31,5.00
2017,05,13,05,32,5.00
2017,05,13,05,33,5.00
2017,05,13,05,34,5.10
2017,05,13,05,35,5.10
2017,05,13,05,36,5.10
2017,05,13,05,37,5.10
2017,05,13,05,38,5.10
2017,05,13,05,39,5.20
2017,05,13,05,40,5.20
2017,05,13,05,41,5.20
2017,05,13,05,42,5.30
2017,05,13,05,43,5.30
2017,05,13,05,44,5.30
2017,05,13,05,45,5.30
2017,05,13,05,46,5.40
2017,05,13,05,47,5.40
2017,05,13,05,48,5.40
2017,05,13,05,49,5.40
2017,05,13,05,50,5.40
2017,05,13,05,51,5.40
2017,05,13,05,52,5.40
2017,05,13,05,53,5.40
2017,05,13,05,54,5.50
2017,05,13,05,55,5.50
2017,05,13,05,56,5.50
2017,05,13,05,57,5.50
2017,05,13,05,58,5.60
2017,05,13,05,59,5.60
2017,05,13,06,00,5.60
2017,05,13,06,01,5.70
2017,05,13,06,02,5.70
2017,05,13,06,03,5.80
2017,05,13,06,04,5.80
2017,05,13,06,05,5.80
2017,05,13,06,06,5.90
2017,05,13,06,07,5.90
2017,05,13,06,08,5.90
2017,05,13,06,09,5.90
2017,05,13,06,10,5.90
2017,05,13,06,11,5.90
2017,05,13,06,12,5.90
2017,05,13,06,13,5.90
2017,05,13,06,14,5.90
2017,05,13,06,15,5.90
2017,05,13,06,16,5.90
2017,05,13,06,17,5.90
2017,05,13,06,18,5.80
2017,05,13,06,19,5.90
2017,05,13,06,20,5.90
2017,05,13,06,21,5.90
2017,05,13,06,22,5.90
2017,05,13,06,23,5.90
2017,05,13,06,24,5.90
2017,05,13,06,25,5.90
2017,05,13,06,26,5.90
2017,05,13,06,27,5.90
2017,05,13,06,28,6.00
2017,05,13,06,29,6.00
2017,05,13,06,30,6.10
2017,05,13,06,31,6.10
2017,05,13,06,32,6.10
2017,05,13,06,33,6.20
2017,05,13,06,34,6.20
2017,05,13,06,35,6.20
2017,05,13,06,36,6.20
2017,05,13,06,37,6.30
2017,05,13,06,38,6.30
2017,05,13,06,39,6.30
2017,05,13,06,40,6.30
2017,05,13,06,41,6.40
2017,05,13,06,42,6.40
2017,05,13,06,43,6.40
2017,05,13,06,44,6.40
2017,05,13,06,45,6.50
2017,05,13,06,46,6.50
2017,05,13,06,47,6.60
2017,05,13,06,48,6.60
2017,05,13,06,49,6.60
2017,05,13,06,50,6.70
2017,05,13,06,51,6.70
2017,05,13,06,52,6.70
2017,05,13,06,53,6.80
2017,05,13,06,54,6.80
2017,05,13,06,55,6.80
2017,05,13,06,56,6.80
2017,05,13,06,57,6.80
2017,05,13,06,58,6.80
2017,05,13,06,59,6.90
2017,05,13,07,00,6.90
2017,05,13,07,01,6.90
2017,05,13,07,02,6.90
2017,05,13,07,03,6.90
2017,05,13,07,04,6.90
2017,05,13,07,05,6.90
2017,05,13,07,06,6.90
2017,05,13,07,07,6.90
2017,05,13,07,08,6.90
2017,05,13,07,09,6.90
2017,05,13,07,10,6.90
2017,05,13,07,11,6.90
2017,05,13,07,12,7.00
2017,05,13,07,13,7.00
2017,05,13,07,14,7.00
2017,05,13,07,15,7.00
2017,05,13,07,16,7.10
2017,05,13,07,17,7.10
2017,05,13,07,18,7.10
2017,05,13,07,19,7.10
2017,05,13,07,20,7.10
2017,05,13,07,21,7.10
2017,05,13,07,22,7.20
2017,05,13,07,23,7.20
2017,05,13,07,24,7.20
2017,05,13,07,25,7.20
2017,05,13,07,26,7.20
2017,05,13,07,27,7.20
2017,05,13,07,28,7.30
2017,05,13,07,29,7.30
2017,05,13,07,30,7.30
2017,05,13,07,31,7.30
2017,05,13,07,32,7.30
2017,05,13,07,33,7.30
2017,05,13,07,34,7.40
2017,05,13,07,35,7.40
2017,05,13,07,36,7.40
2017,05,13,07,37,7.40
2017,05,13,07,38,7.50
2017,05,13,07,39,7.50
2017,05,13,07,40,7.50
2017,05,13,07,41,7.50
2017,05,13,07,42,7.60
2017,05,13,07,43,7.60
2017,05,13,07,44,7.60
2017,05,13,07,45,7.70
2017,05,13,07,46,7.70
2017,05,13,07,47,7.70
2017,05,13,07,48,7.70
2017,05,13,07,49,7.80
2017,05,13,07,50,7.80
2017,05,13,07,51,7.80
2017,05,13,07,52,7.80
2017,05,13,07,53,7.90
2017,05,13,07,54,7.90
2017,05,13,07,55,7.90
2017,05,13,07,56,8.00
2017,05,13,07,57,8.00
2017,05,13,07,58,8.00
2017,05,13,07,59,8.00
2017,05,13,08,00,8.10
2017,05,13,08,01,8.10
2017,05,13,08,02,8.10
2017,05,13,08,03,8.20
2017,05,13,08,04,8.20
2017,05,13,08,05,8.20
2017,05,13,08,06,8.20
2017,05,13,08,07,8.20
2017,05,13,08,08,8.20
2017,05,13,08,09,8.20
2017,05,13,08,10,8.20
2017,05,13,08,11,8.20
2017,05,13,08,12,8.30
2017,05,13,08,13,8.30
2017,05,13,08,14,8.30
2017,05,13,08,15,8.30
2017,05,13,08,16,8.30
2017,05,13,08,17,8.30
2017,05,13,08,18,8.30
2017,05,13,08,19,8.40
2017,05,13,08,20,8.40
2017,05,13,08,21,8.40
2017,05,13,08,22,8.40
2017,05,13,08,23,8.50
2017,05,13,08,24,8.50
2017,05,13,08,25,8.50
2017,05,13,08,26,8.60
2017,05,13,08,27,8.60
2017,05,13,08,28,8.60
2017,05,13,08,29,8.70
2017,05,13,08,30,8.70
2017,05,13,08,31,8.70
2017,05,13,08,32,8.70
2017,05,13,08,33,8.80
2017,05,13,08,34,8.80
2017,05,13,08,35,8.80
2017,05,13,08,36,8.80
2017,05,13,08,37,8.80
2017,05,13,08,38,8.80
2017,05,13,08,39,8.90
2017,05,13,08,40,8.90
2017,05,13,08,41,8.90
2017,05,13,08,42,8.90
2017,05,13,08,43,8.90
2017,05,13,08,44,9.00
2017,05,13,08,45,9.00
2017,05,13,08,46,9.00
2017,05,13,08,47,9.00
2017,05,13,08,48,8.90
2017,05,13,08,49,8.90
2017,05,13,08,50,9.00
2017,05,13,08,51,8.90
2017,05,13,08,52,8.90
2017,05,13,08,53,8.90
2017,05,13,08,54,8.90
2017,05,13,08,55,8.90
2017,05,13,08,56,9.00
2017,05,13,08,57,9.00
2017,05,13,08,58,9.00
2017,05,13,08,59,9.00
2017,05,13,09,00,9.10
2017,05,13,09,01,9.10
2017,05,13,09,02,9.10
2017,05,13,09,03,9.10
2017,05,13,09,04,9.10
2017,05,13,09,05,9.20
2017,05,13,09,06,9.20
2017,05,13,09,07,9.20
2017,05,13,09,08,9.20
2017,05,13,09,09,9.20
2017,05,13,09,10,9.20
2017,05,13,09,11,9.20
2017,05,13,09,12,9.20
2017,05,13,09,13,9.20
2017,05,13,09,14,9.20
2017,05,13,09,15,9.20
2017,05,13,09,16,9.20
2017,05,13,09,17,9.10
2017,05,13,09,18,9.10
2017,05,13,09,19,9.10
2017,05,13,09,20,9.10
2017,05,13,09,21,9.10
2017,05,13,09,22,9.10
2017,05,13,09,23,9.10
2017,05,13,09,24,9.10
2017,05,13,09,25,9.20
2017,05,13,09,26,9.20
2017,05,13,09,27,9.20
2017,05,13,09,28,9.20
2017,05,13,09,29,9.20
2017,05,13,09,30,9.20
2017,05,13,09,31,9.20
2017,05,13,09,32,9.30
2017,05,13,09,33,9.30
2017,05,13,09,34,9.30
2017,05,13,09,35,9.30
2017,05,13,09,36,9.30
2017,05,13,09,37,9.30
2017,05,13,09,38,9.40
2017,05,13,09,39,9.40
2017,05,13,09,40,9.40
2017,05,13,09,41,9.40
2017,05,13,09,42,9.40
2017,05,13,09,43,9.40
2017,05,13,09,44,9.50
2017,05,13,09,45,9.50
2017,05,13,09,46,9.50
2017,05,13,09,47,9.50
2017,05,13,09,48,9.60
2017,05,13,09,49,9.60
2017,05,13,09,50,9.60
2017,05,13,09,51,9.70
2017,05,13,09,52,9.70
2017,05,13,09,53,9.70
2017,05,13,09,54,9.80
2017,05,13,09,55,9.80
2017,05,13,09,56,9.80
2017,05,13,09,57,9.90
2017,05,13,09,58,9.90
2017,05,13,09,59,10.00
2017,05,13,10,00,10.00
2017,05,13,10,01,10.10
2017,05,13,10,02,10.10
2017,05,13,10,03,10.20
2017,05,13,10,04,10.20
2017,05,13,10,05,10.20
2017,05,13,10,06,10.20
2017,05,13,10,07,10.10
2017,05,13,10,08,10.10
2017,05,13,10,09,10.00
2017,05,13,10,10,10.00
2017,05,13,10,11,9.90
2017,05,13,10,12,10.00
2017,05,13,10,13,9.90
2017,05,13,10,14,9.90
2017,05,13,10,15,10.00
2017,05,13,10,16,10.00
2017,05,13,10,17,10.00
2017,05,13,10,18,10.00
2017,05,13,10,19,10.00
2017,05,13,10,20,10.00
2017,05,13,10,21,10.10
2017,05,13,10,22,10.10
2017,05,13,10,23,10.10
2017,05,13,10,24,10.10
2017,05,13,10,25,10.10
2017,05,13,10,26,10.10
2017,05,13,10,27,10.10
2017,05,13,10,28,10.10
2017,05,13,10,29,10.10
2017,05,13,10,30,10.10
2017,05,13,10,31,10.10
2017,05,13,10,32,10.10
2017,05,13,10,33,10.10
2017,05,13,10,34,10.00
2017,05,13,10,35,10.00
2017,05,13,10,36,10.00
2017,05,13,10,37,9.90
2017,05,13,10,38,9.90
2017,05,13,10,39,9.90
2017,05,13,10,40,9.90
2017,05,13,10,41,9.90
2017,05,13,10,42,9.90
2017,05,13,10,43,9.90
2017,05,13,10,44,9.90
2017,05,13,10,45,9.90
2017,05,13,10,46,9.90
2017,05,13,10,47,9.80
2017,05,13,10,48,9.80
2017,05,13,10,49,9.80
2017,05,13,10,50,9.80
2017,05,13,10,51,9.80
2017,05,13,10,52,9.80
2017,05,13,10,53,9.80
2017,05,13,10,54,9.80
2017,05,13,10,55,9.80
2017,05,13,10,56,9.80
2017,05,13,10,57,9.80
2017,05,13,10,58,9.80
2017,05,13,10,59,9.80
2017,05,13,11,00,9.90
2017,05,13,11,01,9.90
2017,05,13,11,02,9.90
2017,05,13,11,03,9.90
2017,05,13,11,04,9.80
2017,05,13,11,05,9.80
2017,05,13,11,06,9.80
2017,05,13,11,07,9.80
2017,05,13,11,08,9.80
2017,05,13,11,09,9.80
2017,05,13,11,10,9.70
2017,05,13,11,11,9.70
2017,05,13,11,12,9.70
2017,05,13,11,13,9.70
2017,05,13,11,14,9.70
2017,05,13,11,15,9.70
2017,05,13,11,16,9.70
2017,05,13,11,17,9.70
2017,05,13,11,18,9.80
2017,05,13,11,19,9.80
2017,05,13,11,20,9.80
2017,05,13,11,21,9.90
2017,05,13,11,22,9.90
2017,05,13,11,23,10.00
2017,05,13,11,24,10.00
2017,05,13,11,25,10.10
2017,05,13,11,26,10.10
2017,05,13,11,27,10.20
2017,05,13,11,28,10.20
2017,05,13,11,29,10.20
2017,05,13,11,30,10.20
2017,05,13,11,31,10.20
2017,05,13,11,32,10.20
2017,05,13,11,33,10.20
2017,05,13,11,34,10.10
2017,05,13,11,35,10.10
2017,05,13,11,36,10.00
2017,05,13,11,37,9.90
2017,05,13,11,38,9.90
2017,05,13,11,39,9.80
2017,05,13,11,40,9.80
2017,05,13,11,41,9.70
2017,05,13,11,42,9.70
2017,05,13,11,43,9.60
2017,05,13,11,44,9.60
2017,05,13,11,45,9.50
2017,05,13,11,46,9.50
2017,05,13,11,47,9.40
2017,05,13,11,48,9.40
2017,05,13,11,49,9.40
2017,05,13,11,50,9.40
2017,05,13,11,51,9.40
2017,05,13,11,52,9.40
2017,05,13,11,53,9.40
2017,05,13,11,54,9.40
2017,05,13,11,55,9.40
2017,05,13,11,56,9.40
2017,05,13,11,57,9.40
2017,05,13,11,58,9.40
2017,05,13,11,59,9.30
2017,05,13,12,00,9.30
2017,05,13,12,01,9.30
2017,05,13,12,02,9.30
2017,05,13,12,03,9.30
2017,05,13,12,04,9.30
2017,05,13,12,05,9.30
2017,05,13,12,06,9.30
2017,05,13,12,07,9.30
2017,05,13,12,08,9.30
2017,05,13,12,09,9.40
2017,05,13,12,10,9.40
2017,05,13,12,11,9.40
2017,05,13,12,12,9.40
2017,05,13,12,13,9.40
2017,05,13,12,14,9.40
2017,05,13,12,15,9.50
2017,05,13,12,16,9.50
2017,05,13,12,17,9.60
2017,05,13,12,18,9.60
2017,05,13,12,19,9.70
2017,05,13,12,20,9.70
2017,05,13,12,21,9.80
2017,05,13,12,22,9.80
2017,05,13,12,23,9.80
2017,05,13,12,24,9.80
2017,05,13,12,25,9.90
2017,05,13,12,26,9.90
2017,05,13,12,27,10.00
2017,05,13,12,28,10.00
2017,05,13,12,29,10.10
2017,05,13,12,30,10.20
2017,05,13,12,31,10.20
2017,05,13,12,32,10.30
2017,05,13,12,33,10.40
2017,05,13,12,34,10.50
2017,05,13,12,35,10.50
2017,05,13,12,36,10.60
2017,05,13,12,37,10.70
2017,05,13,12,38,10.80
2017,05,13,12,39,10.90
2017,05,13,12,40,11.00
2017,05,13,12,41,11.10
2017,05,13,12,42,11.20
2017,05,13,12,43,11.30
2017,05,13,12,44,11.30
2017,05,13,12,45,11.30
2017,05,13,12,46,11.30
2017,05,13,12,47,11.20
2017,05,13,12,48,11.20
2017,05,13,12,49,11.20
2017,05,13,12,50,11.20
2017,05,13,12,51,11.30
2017,05,13,12,52,11.40
2017,05,13,12,53,11.50
2017,05,13,12,54,11.60
2017,05,13,12,55,11.70
2017,05,13,12,56,11.80
2017,05,13,12,57,11.90
2017,05,13,12,58,12.00
2017,05,13,12,59,12.10
2017,05,13,13,00,12.20
2017,05,13,13,01,12.20
2017,05,13,13,02,12.20
2017,05,13,13,03,12.20
2017,05,13,13,04,12.20
2017,05,13,13,05,12.20
2017,05,13,13,06,12.10
2017,05,13,13,07,12.10
2017,05,13,13,08,12.10
2017,05,13,13,09,12.20
2017,05,13,13,10,12.30
2017,05,13,13,11,12.40
2017,05,13,13,12,12.50
2017,05,13,13,13,12.60
2017,05,13,13,14,12.60
2017,05,13,13,15,12.70
2017,05,13,13,16,12.70
2017,05,13,13,17,12.70
2017,05,13,13,18,12.70
2017,05,13,13,19,12.70
2017,05,13,13,20,12.80
2017,05,13,13,21,12.80
2017,05,13,13,22,12.90
2017,05,13,13,23,12.90
2017,05,13,13,24,12.90
2017,05,13,13,25,12.90
2017,05,13,13,26,12.90
2017,05,13,13,27,12.90
2017,05,13,13,28,12.90
2017,05,13,13,29,12.90
2017,05,13,13,30,12.90
2017,05,13,13,31,12.90
2017,05,13,13,32,13.00
2017,05,13,13,33,13.00
2017,05,13,13,34,13.10
2017,05,13,13,35,13.10
2017,05,13,13,36,13.20
2017,05,13,13,37,13.20
2017,05,13,13,38,13.20
2017,05,13,13,39,13.30
2017,05,13,13,40,13.30
2017,05,13,13,41,13.20
2017,05,13,13,42,13.20
2017,05,13,13,43,13.00
2017,05,13,13,44,12.90
2017,05,13,13,45,12.80
2017,05,13,13,46,12.80
2017,05,13,13,47,12.80
2017,05,13,13,48,12.80
2017,05,13,13,49,12.80
2017,05,13,13,50,12.80
2017,05,13,13,51,12.80
2017,05,13,13,52,12.80
2017,05,13,13,53,12.70
2017,05,13,13,54,12.70
2017,05,13,13,55,12.60
2017,05,13,13,56,12.50
2017,05,13,13,57,12.40
2017,05,13,13,58,12.30
2017,05,13,13,59,12.20
2017,05,13,14,00,12.20
2017,05,13,14,01,12.20
2017,05,13,14,02,12.10
2017,05,13,14,03,12.10
2017,05,13,14,04,12.00
2017,05,13,14,05,12.00
2017,05,13,14,06,11.90
2017,05,13,14,07,11.90
2017,05,13,14,08,11.90
2017,05,13,14,09,11.90
2017,05,13,14,10,11.80
2017,05,13,14,11,11.90
2017,05,13,14,12,11.90
2017,05,13,14,13,11.80
2017,05,13,14,14,11.80
2017,05,13,14,15,11.70
2017,05,13,14,16,11.70
2017,05,13,14,17,11.70
2017,05,13,14,18,11.70
2017,05,13,14,19,11.70
2017,05,13,14,20,11.80
2017,05,13,14,21,11.90
2017,05,13,14,22,12.00
2017,05,13,14,23,12.00
2017,05,13,14,24,12.10
2017,05,13,14,25,12.10
2017,05,13,14,26,12.20
2017,05,13,14,27,12.20
2017,05,13,14,28,12.30
2017,05,13,14,29,12.30
2017,05,13,14,30,12.40
2017,05,13,14,31,12.40
2017,05,13,14,32,12.40
2017,05,13,14,33,12.40
2017,05,13,14,34,12.50
2017,05,13,14,35,12.50
2017,05,13,14,36,12.50
2017,05,13,14,37,12.50
2017,05,13,14,38,12.40
2017,05,13,14,39,12.40
2017,05,13,14,40,12.40
2017,05,13,14,41,12.40
2017,05,13,14,42,12.30
2017,05,13,14,43,12.40
2017,05,13,14,44,12.50
2017,05,13,14,45,12.50
2017,05,13,14,46,12.60
2017,05,13,14,47,12.60
2017,05,13,14,48,12.60
2017,05,13,14,49,12.60
2017,05,13,14,50,12.60
2017,05,13,14,51,12.70
2017,05,13,14,52,12.80
2017,05,13,14,53,12.80
2017,05,13,14,54,12.90
2017,05,13,14,55,13.00
2017,05,13,14,56,13.10
2017,05,13,14,57,13.10
2017,05,13,14,58,13.10
2017,05,13,14,59,13.10
2017,05,13,15,00,13.10
2017,05,13,15,01,13.10
2017,05,13,15,02,13.10
2017,05,13,15,03,13.20
2017,05,13,15,04,13.20
2017,05,13,15,05,13.30
2017,05,13,15,06,13.30
2017,05,13,15,07,13.40
2017,05,13,15,08,13.50
2017,05,13,15,09,13.50
2017,05,13,15,10,13.50
2017,05,13,15,11,13.40
2017,05,13,15,12,13.40
2017,05,13,15,13,13.40
2017,05,13,15,14,13.30
2017,05,13,15,15,13.20
2017,05,13,15,16,13.20
2017,05,13,15,17,13.10
2017,05,13,15,18,13.10
2017,05,13,15,19,13.10
2017,05,13,15,20,13.10
2017,05,13,15,21,13.10
2017,05,13,15,22,13.10
2017,05,13,15,23,13.10
2017,05,13,15,24,13.10
2017,05,13,15,25,13.20
2017,05,13,15,26,13.20
2017,05,13,15,27,13.20
2017,05,13,15,28,13.30
2017,05,13,15,29,13.30
2017,05,13,15,30,13.30
2017,05,13,15,31,13.30
2017,05,13,15,32,13.30
2017,05,13,15,33,13.20
2017,05,13,15,34,13.10
2017,05,13,15,35,13.00
2017,05,13,15,36,12.90
2017,05,13,15,37,12.80
2017,05,13,15,38,12.80
2017,05,13,15,39,12.70
2017,05,13,15,40,12.70
2017,05,13,15,41,12.70
2017,05,13,15,42,12.60
2017,05,13,15,43,12.60
2017,05,13,15,44,12.60
2017,05,13,15,45,12.50
2017,05,13,15,46,12.50
2017,05,13,15,47,12.50
2017,05,13,15,48,12.50
2017,05,13,15,49,12.50
2017,05,13,15,50,12.50
2017,05,13,15,51,12.50
2017,05,13,15,52,12.40
2017,05,13,15,53,12.40
2017,05,13,15,54,12.40
2017,05,13,15,55,12.30
2017,05,13,15,56,12.30
2017,05,13,15,57,12.20
2017,05,13,15,58,12.20
2017,05,13,15,59,12.10
2017,05,13,16,00,12.00
2017,05,13,16,01,11.90
2017,05,13,16,02,11.80
2017,05,13,16,03,11.80
2017,05,13,16,04,11.70
2017,05,13,16,05,11.70
2017,05,13,16,06,11.70
2017,05,13,16,07,11.70
2017,05,13,16,08,11.60
2017,05,13,16,09,11.60
2017,05,13,16,10,11.60
2017,05,13,16,11,11.60
2017,05,13,16,12,11.60
2017,05,13,16,13,11.60
2017,05,13,16,14,11.70
2017,05,13,16,15,11.70
2017,05,13,16,16,11.70
2017,05,13,16,17,11.70
2017,05,13,16,18,11.70
2017,05,13,16,19,11.70
2017,05,13,16,20,11.70
2017,05,13,16,21,11.80
2017,05,13,16,22,11.80
2017,05,13,16,23,11.80
2017,05,13,16,24,11.80
2017,05,13,16,25,11.80
2017,05,13,16,26,11.80
2017,05,13,16,27,11.80
2017,05,13,16,28,11.80
2017,05,13,16,29,11.80
2017,05,13,16,30,11.80
2017,05,13,16,31,11.80
2017,05,13,16,32,11.80
2017,05,13,16,33,11.80
2017,05,13,16,34,11.80
2017,05,13,16,35,11.90
2017,05,13,16,36,11.90
2017,05,13,16,37,11.90
2017,05,13,16,38,11.90
2017,05,13,16,39,11.90
2017,05,13,16,40,11.90
2017,05,13,16,41,11.90
2017,05,13,16,42,12.00
2017,05,13,16,43,12.00
2017,05,13,16,44,12.00
2017,05,13,16,45,12.10
2017,05,13,16,46,12.10
2017,05,13,16,47,12.10
2017,05,13,16,48,12.20
2017,05,13,16,49,12.20
2017,05,13,16,50,12.30
2017,05,13,16,51,12.30
2017,05,13,16,52,12.30
2017,05,13,16,53,12.40
2017,05,13,16,54,12.40
2017,05,13,16,55,12.40
2017,05,13,16,56,12.40
2017,05,13,16,57,12.50
2017,05,13,16,58,12.50
2017,05,13,16,59,12.50
2017,05,13,17,00,12.50
2017,05,13,17,01,12.60
2017,05,13,17,02,12.60
2017,05,13,17,03,12.60
2017,05,13,17,04,12.60
2017,05,13,17,05,12.60
2017,05,13,17,06,12.50
2017,05,13,17,07,12.50
2017,05,13,17,08,12.50
2017,05,13,17,09,12.50
2017,05,13,17,10,12.60
2017,05,13,17,11,12.60
2017,05,13,17,12,12.60
2017,05,13,17,13,12.60
2017,05,13,17,14,12.60
2017,05,13,17,15,12.60
2017,05,13,17,16,12.60
2017,05,13,17,17,12.70
2017,05,13,17,18,12.70
2017,05,13,17,19,12.70
2017,05,13,17,20,12.60
2017,05,13,17,21,12.60
2017,05,13,17,22,12.60
2017,05,13,17,23,12.60
2017,05,13,17,24,12.60
2017,05,13,17,25,12.60
2017,05,13,17,26,12.60
2017,05,13,17,27,12.70
2017,05,13,17,28,12.70
2017,05,13,17,29,12.70
2017,05,13,17,30,12.70
2017,05,13,17,31,12.70
2017,05,13,17,32,12.70
2017,05,13,17,33,12.70
2017,05,13,17,34,12.70
2017,05,13,17,35,12.80
2017,05,13,17,36,12.80
2017,05,13,17,37,12.80
2017,05,13,17,38,12.80
2017,05,13,17,39,12.80
2017,05,13,17,40,12.90
2017,05,13,17,41,12.80
2017,05,13,17,42,12.80
2017,05,13,17,43,12.80
2017,05,13,17,44,12.80
2017,05,13,17,45,12.80
2017,05,13,17,46,12.80
2017,05,13,17,47,12.80
2017,05,13,17,48,12.90
2017,05,13,17,49,12.90